Regional Weather Roundup
Issued by NWS

Home | Current Version | Previous Version | Text Only | Print | Product List | Glossary Off
Versions: 1 2 3 4 5 6 7 8 9 10 11 12 13 14 15 16 17 18 19 20 21 22 23 24 25 26 27 28 29 30 31 32 33 34 35 36 37 38 39 40 41 42 43 44 45 46 47 48 49 50

000
ASUS43 KLMK 170110
RWRKY
KENTUCKY REGIONAL WEATHER ROUNDUP
NATIONAL WEATHER SERVICE LOUISVILLE KY
900 PM EDT WED AUG 16 2017

NOTE "FAIR" INDICATES FEW OR NO CLOUDS BELOW 12,000 FEET
WITH NO SIGNIFICANT WEATHER AND/OR OBSTRUCTIONS TO VISIBILITY.

KYZ001>023-026-027-061>063-070>075-170200-
WESTERN AND SOUTH CENTRAL KENTUCKY

CITY           SKY/WX    TMP DP  RH WIND       PRES   REMARKS
PADUCAH        PTCLDY    83  74  74 CALM      29.95S
HENDERSON      MOCLDY    79  75  87 CALM      29.96S
OWENSBORO      PTCLDY    81  74  79 S7        29.96S
HOPKINSVILLE   DRIZZLE   83  76  81 SW16      29.98R HX  91
BOWLING GREEN  CLOUDY    80  77  90 S3        29.99R
GLASGOW        PTCLDY    77  76  98 E3        30.01R
$$

KYZ024-025-028>034-038-045-046-053-170200-
NORTH CENTRAL KENTUCKY

CITY           SKY/WX    TMP DP  RH WIND       PRES   REMARKS
LOUISVILLE/SDF CLOUDY    84  74  71 SW8       29.96S HX  91
LOUISVILLE/LOU CLOUDY    84  75  74 S8        29.97S HX  92
FORT KNOX      MOCLDY    77  72  83 S3        29.98R
$$

KYZ035>037-039>044-047>052-055>060-089>105-170200-
NORTHEAST KENTUCKY

CITY           SKY/WX    TMP DP  RH WIND       PRES   REMARKS
LEXINGTON      PTCLDY    81  71  71 S5        30.01R
COVINGTON      PTCLDY    80  74  81 S6        29.97F
FRANKFORT      PTCLDY    81  71  71 SW3       29.98S
$$

KYZ054-064>069-076>088-106>120-170200-
SOUTHEAST KENTUCKY

CITY           SKY/WX    TMP DP  RH WIND       PRES   REMARKS
JACKSON        CLEAR     75  71  87 CALM      30.05R
LONDON         CLEAR     78  73  84 CALM      30.04R
SOMERSET       PTCLDY    77  72  83 CALM      30.04R
MIDDLESBORO    CLEAR     77  75  92 CALM      30.06R
MONTICELLO     CLEAR     76  74  93 CALM      30.05R
$$




USA.gov is the U.S. government's official web portal to all federal, state and local government web resources and services.